This is the latest recevied weather packets stored in our database for station/object KI5NXU. If no packets are shown the sender has not sent any weather packets the latest 10 day(s).
| Time | Temp. | Humidity | Pressure | Rain* | Wind** | Luminosity | Snow |
|---|---|---|---|---|---|---|---|
| 1788011245 | 27.78° C | 68% | 1018.1 hPa | 0 mm | - | 152 W/m² | - |
| 1788010944 | 27.78° C | 66% | 1018.2 hPa | 0 mm | - | 135 W/m² | - |
| 1788010639 | 27.78° C | 68% | 1018.1 hPa | 0 mm | - | 125 W/m² | - |
| 1788010338 | 27.78° C | 67% | 1018 hPa | 0 mm | - | 103 W/m² | - |
| 1788010038 | 27.22° C | 69% | 1018.1 hPa | 0 mm | - | 75 W/m² | - |
| 1788009733 | 26.67° C | 70% | 1018.2 hPa | 0 mm | - | 69 W/m² | - |
| 1788009431 | 26.11° C | 72% | 1018 hPa | 0 mm | - | 63 W/m² | - |
| 1788009126 | 25.56° C | 74% | 1018.1 hPa | 0 mm | - | 58 W/m² | - |
| 1788008822 | 25° C | 75% | 1018 hPa | 0 mm | - | 45 W/m² | - |
| 1788008520 | 24.44° C | 75% | 1018 hPa | 0 mm | - | 39 W/m² | - |
| 1788008218 | 24.44° C | 76% | 1017.9 hPa | 0 mm | - | 37 W/m² | - |
| 1788007916 | 24.44° C | 76% | 1017.8 hPa | 0 mm | - | 33 W/m² | - |
| 1788007610 | 24.44° C | 76% | 1017.9 hPa | 0 mm | - | 29 W/m² | - |
| 1788007309 | 24.44° C | 76% | 1018 hPa | 0 mm | - | 25 W/m² | - |
| 1788007009 | 23.89° C | 76% | 1017.6 hPa | 0 mm | - | 22 W/m² | - |
| 1788006698 | 23.89° C | 77% | 1017.6 hPa | 0 mm | - | 18 W/m² | - |
| 1788006393 | 23.89° C | 77% | 1017.8 hPa | 0 mm | - | 14 W/m² | - |
| 1788006093 | 23.33° C | 78% | 1017.6 hPa | 0 mm | - | 10 W/m² | - |
| 1788005792 | 23.33° C | 78% | 1017.5 hPa | 0 mm | - | 7 W/m² | - |
| 1788005481 | 23.33° C | 77% | 1017.4 hPa | 0 mm | - | 3 W/m² | - |
| 1788005180 | 23.89° C | 76% | 1017.2 hPa | 0 mm | - | 1 W/m² | - |
| 1788004877 | 23.89° C | 76% | 1017.3 hPa | 0 mm | - | 0 W/m² | - |
| 1788004574 | 23.89° C | 75% | 1017.4 hPa | 0 mm | - | 0 W/m² | - |
| 1788004269 | 23.89° C | 75% | 1017.3 hPa | 0 mm | - | 0 W/m² | - |
| 1788003968 | 23.89° C | 74% | 1016.9 hPa | 0 mm | - | 0 W/m² | - |
* Rain latest hour (hover to see other rain measurements)
** Current wind speed in m/s (hover to see current wind gust speed)